Location: Sebastopol
(38.4021°N, 122.8239°W)
Time: 14:48:40
(UTC+00:00)

Meteor 2-10 Rocket - Pass Details

Date: 29 October 2020
Orbit: 734 x 885 km, 81.2° (Epoch: 01 December)

Event Time Altitude Azimuth Distance (km) Brightness Sun altitude
Rises 13:10:43 0° 356° (N) 3,172 6.6 -17.1°
Reaches altitude 10° 13:13:06 10° 2° (N) 2,251 5.9 -16.6°
Maximum altitude 13:17:59 50° 78° (ENE) 950 4.4 -15.6°
Drops below altitude 10° 13:22:58 10° 153° (SSE) 2,292 6.4 -14.7°
Sets 13:25:24 0° 159° (SSE) 3,235 7.1 -14.2°
